TimeBST,TemperatureF,Dew PointF,Humidity,Sea Level PressureIn,VisibilityMPH,Wind Direction,Wind SpeedMPH,Gust SpeedMPH,PrecipitationIn,Events,Conditions,WindDirDegrees,DateUTC
12:17 AM,44.6,44.6,100,29.60,6.2,West,5.8,-,N/A,,Overcast,270,2012-10-13 23:17:00
12:58 AM,43.5,43.5,100,29.61,6.2,West,5.8,-,N/A,,Overcast,260,2012-10-13 23:58:00
1:09 AM,42.8,42.8,100,29.60,6.2,West,6.9,-,N/A,,Overcast,270,2012-10-14 00:09:00
1:58 AM,42.6,42.4,99,29.61,6.2,West,5.8,-,N/A,,Overcast,270,2012-10-14 00:58:00
2:09 AM,42.8,42.8,100,29.60,6.2,West,5.8,-,N/A,,Mostly Cloudy,270,2012-10-14 01:09:00
2:58 AM,41.0,41.0,100,29.60,6.2,West,4.6,-,N/A,,Clear,270,2012-10-14 01:58:00
3:58 AM,38.8,38.8,100,29.59,6.2,West,4.6,-,N/A,,Clear,260,2012-10-14 02:58:00
4:58 AM,36.7,36.7,100,29.59,6.2,SW,6.9,-,N/A,,Clear,230,2012-10-14 03:58:00
5:58 AM,36.0,36.0,100,29.59,6.2,SW,5.8,-,N/A,,Clear,230,2012-10-14 04:58:00
6:58 AM,35.8,35.8,100,29.59,6.2,WSW,5.8,-,N/A,,Clear,240,2012-10-14 05:58:00
7:58 AM,35.8,35.8,100,29.59,6.2,WSW,5.8,-,N/A,,Clear,240,2012-10-14 06:58:00
8:58 AM,39.4,39.4,100,29.59,6.2,West,5.8,-,N/A,,Clear,270,2012-10-14 07:58:00
9:58 AM,43.3,43.3,100,29.58,6.2,WNW,6.9,-,N/A,,Clear,290,2012-10-14 08:58:00
10:58 AM,47.3,44.1,88,29.58,6.2,WNW,9.2,-,N/A,,Clear,290,2012-10-14 09:58:00
11:58 AM,51.6,45.3,79,29.57,6.2,NW,11.5,-,N/A,,Clear,320,2012-10-14 10:58:00
12:39 PM,53.6,46.4,77,29.55,6.2,NW,12.7,-,N/A,,Mostly Cloudy,320,2012-10-14 11:39:00
12:58 PM,52.9,44.6,73,29.55,6.2,NW,13.8,-,N/A,,Overcast,310,2012-10-14 11:58:00
12:59 PM,51.8,44.6,76,29.55,6.2,NW,15.0,-,N/A,,Overcast,310,2012-10-14 11:59:00
1:51 PM,51.8,44.6,76,29.53,6.2,NNW,9.2,-,N/A,,Overcast,330,2012-10-14 12:51:00
1:58 PM,52.9,44.8,74,29.54,6.2,NNW,9.2,-,N/A,,Overcast,330,2012-10-14 12:58:00
2:00 PM,53.6,44.6,72,29.53,6.2,NNW,11.5,-,N/A,,Overcast,330,2012-10-14 13:00:00
2:09 PM,53.6,44.6,72,29.53,6.2,NNW,13.8,-,N/A,,Overcast,330,2012-10-14 13:09:00
2:18 PM,53.6,44.6,72,29.53,6.2,NNW,13.8,-,N/A,,Overcast,330,2012-10-14 13:18:00
2:25 PM,51.8,44.6,76,29.53,6.2,NNW,15.0,-,N/A,,Mostly Cloudy,330,2012-10-14 13:25:00
2:33 PM,51.8,42.8,71,29.53,6.2,NNW,11.5,-,N/A,,Scattered Clouds,330,2012-10-14 13:33:00
2:58 PM,54.5,44.2,68,29.53,6.2,NW,13.8,-,N/A,,Mostly Cloudy,320,2012-10-14 13:58:00
3:03 PM,55.4,44.6,67,29.52,6.2,NW,12.7,-,N/A,,Mostly Cloudy,320,2012-10-14 14:03:00
3:13 PM,53.6,42.8,67,29.53,6.2,NNW,12.7,20.7,N/A,,Mostly Cloudy,330,2012-10-14 14:13:00
3:58 PM,52.7,43.7,71,29.53,6.2,NW,15.0,-,N/A,,Mostly Cloudy,320,2012-10-14 14:58:00
4:27 PM,51.8,44.6,76,29.52,6.2,NW,13.8,-,N/A,,Mostly Cloudy,310,2012-10-14 15:27:00
4:33 PM,51.8,44.6,76,29.53,6.2,NW,12.7,-,N/A,,Mostly Cloudy,320,2012-10-14 15:33:00
4:56 PM,51.8,42.8,71,29.53,6.2,NNW,12.7,-,N/A,Rain,Light Rain,330,2012-10-14 15:56:00
4:57 PM,51.8,42.8,71,29.53,6.2,NNW,11.5,-,N/A,Rain,Light Rain,330,2012-10-14 15:57:00
4:58 PM,51.8,42.8,71,29.54,6.2,NNW,11.5,-,N/A,Rain,Light Rain,330,2012-10-14 15:58:00
5:14 PM,50.0,46.4,87,29.54,6.2,NNW,16.1,21.9,N/A,Rain,Light Rain,330,2012-10-14 16:14:00
5:20 PM,48.2,48.2,100,29.55,3.7,NNW,13.8,21.9,N/A,Rain,Heavy Rain,330,2012-10-14 16:20:00
5:58 PM,47.3,46.2,96,29.55,6.2,NW,8.1,-,0.05,Rain,Light Rain,320,2012-10-14 16:58:00
6:05 PM,46.4,46.4,100,29.54,6.2,NW,8.1,-,N/A,,Overcast,320,2012-10-14 17:05:00
6:20 PM,48.2,46.4,93,29.55,6.2,NW,10.4,-,N/A,Rain,Light Rain,310,2012-10-14 17:20:00
6:38 PM,48.2,46.4,93,29.55,6.2,NW,11.5,-,N/A,,Mostly Cloudy,310,2012-10-14 17:38:00
6:58 PM,46.8,46.4,99,29.57,6.2,NW,10.4,-,0.01,,Mostly Cloudy,320,2012-10-14 17:58:00
7:27 PM,46.4,46.4,100,29.56,6.2,NW,10.4,-,N/A,,Mostly Cloudy,320,2012-10-14 18:27:00
7:58 PM,46.2,46.2,100,29.57,6.2,NW,10.4,-,N/A,,Mostly Cloudy,320,2012-10-14 18:58:00
8:02 PM,46.4,46.4,100,29.56,6.2,NW,10.4,-,N/A,,Scattered Clouds,320,2012-10-14 19:02:00
8:58 PM,44.8,44.2,98,29.58,6.2,NW,9.2,-,N/A,,Partly Cloudy,320,2012-10-14 19:58:00
9:34 PM,44.6,44.6,100,29.58,6.2,NW,8.1,-,N/A,,Mostly Cloudy,320,2012-10-14 20:34:00
9:46 PM,44.6,42.8,93,29.58,6.2,NW,9.2,-,N/A,,Scattered Clouds,320,2012-10-14 20:46:00
9:58 PM,43.5,43.2,99,29.59,6.2,NNW,6.9,-,N/A,,Scattered Clouds,330,2012-10-14 20:58:00
10:58 PM,41.9,41.9,100,29.59,6.2,NW,8.1,-,N/A,,Clear,320,2012-10-14 21:58:00
11:58 PM,40.6,40.6,100,29.60,6.2,NW,6.9,-,N/A,,Clear,310,2012-10-14 22:58:00